Location: Hurecourt
(47.9030°N, 6.0653°E)
Time: 04:31:34
(UTC+00:00)

Cosmos 724 - Pass Details

Date: 14 July 2020
Orbit: 859 x 936 km, 65.6° (Epoch: 06 August)

Event Time Altitude Azimuth Distance (km) Brightness Sun altitude
Exits shadow 00:59:22 25° 234° (SW) 1,674 5.3 -18.3°
Maximum altitude 01:02:47 65° 310° (NW) 946 4.5 -18.1°
Drops below altitude 10° 01:08:37 10° 33° (NNE) 2,532 7.9 -17.8°
Sets 01:11:09 0° 36° (NE) 3,483 8.9 -17.6°
